When you browse on this site, cookies collect data to enhance your experience and personalize the content and advertising you see.
Visit our Privacy Policy to learn more. By continuing to use the site, you agree to this use of cookies and data.
  • In Sweden
  • List of Countries
  • For 7 days
  • Water Temperature
  • Weather Map
  • Weather Widgets
  • user-avatar
    Login

    Hourly Weather Dammam

    Today, 18 September, Wednesday

    Time Temperature Precipitation Wind Pressure Humidity
    00:00 +31°C° 0 mm 0 mps 752 mmHg 33%
    01:00 +31°C° 0 mm 0 mps 751 mmHg 33%
    02:00 +32°C° 0 mm 1 mps 751 mmHg 33%
    03:00 +32°C° 0 mm 1 mps 751 mmHg 38%
    04:00 +32°C° 0 mm 2 mps 751 mmHg 36%
    05:00 +34°C° 0 mm 3 mps 752 mmHg 34%
    06:00 +35°C° 0 mm 4 mps 753 mmHg 31%
    07:00 +37°C° 0 mm 4 mps 753 mmHg 27%
    08:00 +40°C° 0 mm 4 mps 753 mmHg 22%
    09:00 +42°C° 0 mm 3 mps 753 mmHg 19%
    10:00 +43°C° 0 mm 3 mps 753 mmHg 16%
    11:00 +45°C° 0 mm 3 mps 753 mmHg 14%
    12:00 +47°C° 0 mm 3 mps 753 mmHg 11%
    13:00 +46°C° 0 mm 3 mps 752 mmHg 12%
    14:00 +45°C° 0 mm 4 mps 752 mmHg 14%
    15:00 +44°C° 0 mm 4 mps 751 mmHg 15%
    16:00 +42°C° 0 mm 3 mps 752 mmHg 19%
    17:00 +39°C° 0 mm 3 mps 752 mmHg 23%
    18:00 +37°C° 0 mm 2 mps 752 mmHg 27%
    19:00 +36°C° 0 mm 2 mps 752 mmHg 30%
    20:00 +34°C° 0 mm 1 mps 752 mmHg 33%
    21:00 +33°C° 0 mm 1 mps 752 mmHg 35%
    22:00 +33°C° 0 mm 1 mps 752 mmHg 36%
    23:00 +33°C° 0 mm 1 mps 752 mmHg 36%

    Tomorrow, 19 September, Thursday

    Time Temperature Precipitation Wind Pressure Humidity
    00:00 +33°C° 0 mm 1 mps 752 mmHg 36%
    01:00 +34°C° 0 mm 2 mps 752 mmHg 34%
    02:00 +34°C° 0 mm 3 mps 752 mmHg 33%
    03:00 +34°C° 0 mm 3 mps 751 mmHg 32%
    04:00 +34°C° 0 mm 3 mps 752 mmHg 30%
    05:00 +34°C° 0 mm 3 mps 752 mmHg 29%
    06:00 +34°C° 0 mm 3 mps 753 mmHg 28%
    07:00 +36°C° 0 mm 4 mps 753 mmHg 29%
    08:00 +40°C° 0 mm 4 mps 753 mmHg 30%
    09:00 +42°C° 0 mm 5 mps 753 mmHg 31%
    10:00 +43°C° 0 mm 5 mps 753 mmHg 29%
    11:00 +44°C° 0 mm 6 mps 753 mmHg 28%
    12:00 +45°C° 0 mm 6 mps 753 mmHg 26%
    13:00 +45°C° 0 mm 6 mps 753 mmHg 28%
    14:00 +44°C° 0 mm 6 mps 752 mmHg 30%
    15:00 +42°C° 0 mm 6 mps 752 mmHg 32%
    16:00 +40°C° 0 mm 5 mps 752 mmHg 39%
    17:00 +38°C° 0 mm 4 mps 752 mmHg 46%
    18:00 +36°C° 0 mm 3 mps 753 mmHg 54%
    19:00 +35°C° 0 mm 3 mps 753 mmHg 57%
    20:00 +34°C° 0 mm 2 mps 753 mmHg 60%
    21:00 +32°C° 0 mm 1 mps 753 mmHg 63%
    22:00 +32°C° 0 mm 1 mps 753 mmHg 62%
    23:00 +32°C° 0 mm 1 mps 753 mmHg 60%

    Day after tomorrow, 20 September, Friday

    Time Temperature Precipitation Wind Pressure Humidity
    00:00 +32°C° 0 mm 1 mps 753 mmHg 59%
    01:00 +32°C° 0 mm 2 mps 752 mmHg 52%
    02:00 +33°C° 0 mm 3 mps 752 mmHg 45%
    03:00 +33°C° 0 mm 4 mps 752 mmHg 39%
    04:00 +33°C° 0 mm 4 mps 752 mmHg 38%
    05:00 +33°C° 0 mm 4 mps 753 mmHg 37%
    06:00 +33°C° 0 mm 4 mps 753 mmHg 36%
    07:00 +36°C° 0 mm 4 mps 753 mmHg 31%
    08:00 +38°C° 0 mm 4 mps 753 mmHg 26%
    09:00 +42°C° 0 mm 5 mps 754 mmHg 21%
    10:00 +43°C° 0 mm 4 mps 753 mmHg 20%
    11:00 +44°C° 0 mm 4 mps 753 mmHg 18%
    12:00 +45°C° 0 mm 4 mps 753 mmHg 16%
    13:00 +45°C° 0 mm 5 mps 752 mmHg 18%
    14:00 +43°C° 0 mm 5 mps 752 mmHg 19%
    15:00 +43°C° 0 mm 5 mps 751 mmHg 20%
    16:00 +41°C° 0 mm 5 mps 751 mmHg 27%
    17:00 +39°C° 0 mm 5 mps 751 mmHg 34%
    18:00 +36°C° 0 mm 4 mps 751 mmHg 40%
    19:00 +35°C° 0 mm 4 mps 752 mmHg 43%
    20:00 +34°C° 0 mm 3 mps 752 mmHg 46%
    21:00 +34°C° 0 mm 3 mps 752 mmHg 49%
    22:00 +34°C° 0 mm 3 mps 752 mmHg 46%
    23:00 +34°C° 0 mm 3 mps 751 mmHg 43%

    21 September, Saturday

    Time Temperature Precipitation Wind Pressure Humidity
    00:00 +34°C° 0 mm 3 mps 751 mmHg 40%
    01:00 +33°C° 0 mm 3 mps 751 mmHg 36%
    02:00 +33°C° 0 mm 3 mps 750 mmHg 32%
    03:00 +31°C° 0 mm 3 mps 750 mmHg 28%
    04:00 +31°C° 0 mm 2 mps 750 mmHg 27%
    05:00 +31°C° 0 mm 2 mps 751 mmHg 26%
    06:00 +31°C° 0 mm 2 mps 751 mmHg 25%
    07:00 +34°C° 0 mm 2 mps 751 mmHg 21%
    08:00 +37°C° 0 mm 2 mps 752 mmHg 17%
    09:00 +39°C° 0 mm 3 mps 752 mmHg 12%
    10:00 +42°C° 0 mm 3 mps 751 mmHg 11%
    11:00 +44°C° 0 mm 3 mps 751 mmHg 9%
    12:00 +46°C° 0 mm 3 mps 750 mmHg 7%
    13:00 +46°C° 0 mm 3 mps 750 mmHg 8%
    14:00 +47°C° 0 mm 3 mps 749 mmHg 8%
    15:00 +47°C° 0 mm 3 mps 749 mmHg 8%
    16:00 +44°C° 0 mm 3 mps 749 mmHg 12%
    17:00 +42°C° 0 mm 3 mps 749 mmHg 16%
    18:00 +38°C° 0 mm 3 mps 749 mmHg 20%
    19:00 +37°C° 0 mm 3 mps 749 mmHg 23%
    20:00 +36°C° 0 mm 3 mps 750 mmHg 27%
    21:00 +35°C° 0 mm 3 mps 750 mmHg 30%
    22:00 +35°C° 0 mm 3 mps 750 mmHg 33%
    23:00 +34°C° 0 mm 3 mps 750 mmHg 36%

    22 September, Sunday

    Time Temperature Precipitation Wind Pressure Humidity
    00:00 +34°C° 0 mm 3 mps 750 mmHg 40%
    01:00 +32°C° 0 mm 2 mps 750 mmHg 43%
    02:00 +32°C° 0 mm 2 mps 750 mmHg 46%
    03:00 +31°C° 0 mm 1 mps 750 mmHg 49%
    04:00 +31°C° 0 mm 1 mps 750 mmHg 50%
    05:00 +31°C° 0 mm 1 mps 751 mmHg 50%
    06:00 +31°C° 0 mm 1 mps 751 mmHg 50%
    07:00 +33°C° 0 mm 1 mps 751 mmHg 43%
    08:00 +35°C° 0 mm 1 mps 752 mmHg 36%
    09:00 +37°C° 0 mm 1 mps 752 mmHg 28%
    10:00 +40°C° 0 mm 2 mps 752 mmHg 26%
    11:00 +41°C° 0 mm 2 mps 752 mmHg 23%
    12:00 +43°C° 0 mm 3 mps 751 mmHg 20%
    13:00 +43°C° 0 mm 4 mps 751 mmHg 22%
    14:00 +43°C° 0 mm 4 mps 751 mmHg 24%
    15:00 +42°C° 0 mm 5 mps 750 mmHg 26%
    16:00 +40°C° 0 mm 5 mps 750 mmHg 35%
    17:00 +37°C° 0 mm 5 mps 750 mmHg 44%
    18:00 +35°C° 0 mm 5 mps 750 mmHg 54%
    19:00 +34°C° 0 mm 4 mps 751 mmHg 57%
    20:00 +34°C° 0 mm 4 mps 751 mmHg 59%
    21:00 +33°C° 0 mm 3 mps 752 mmHg 62%
    22:00 +32°C° 0 mm 2 mps 752 mmHg 64%
    23:00 +31°C° 0 mm 2 mps 751 mmHg 66%

    23 September, Monday

    Time Temperature Precipitation Wind Pressure Humidity
    00:00 +31°C° 0 mm 1 mps 751 mmHg 68%
    01:00 +31°C° 0 mm 1 mps 751 mmHg 65%
    02:00 +31°C° 0 mm 2 mps 751 mmHg 63%
    03:00 +31°C° 0 mm 2 mps 751 mmHg 60%
    04:00 +30°C° 0 mm 2 mps 752 mmHg 59%
    05:00 +30°C° 0 mm 1 mps 752 mmHg 58%
    06:00 +28°C° 0 mm 0 mps 753 mmHg 57%
    07:00 +32°C° 0 mm 1 mps 753 mmHg 49%
    08:00 +36°C° 0 mm 2 mps 754 mmHg 41%
    09:00 +38°C° 0 mm 3 mps 754 mmHg 33%
    10:00 +39°C° 0 mm 3 mps 753 mmHg 29%
    11:00 +42°C° 0 mm 3 mps 753 mmHg 26%
    12:00 +43°C° 0 mm 3 mps 753 mmHg 22%
    13:00 +43°C° 0 mm 4 mps 752 mmHg 21%
    14:00 +44°C° 0 mm 4 mps 752 mmHg 21%
    15:00 +44°C° 0 mm 4 mps 751 mmHg 21%
    16:00 +42°C° 0 mm 5 mps 751 mmHg 30%
    17:00 +39°C° 0 mm 5 mps 751 mmHg 39%
    18:00 +36°C° 0 mm 5 mps 751 mmHg 47%
    19:00 +35°C° 0 mm 4 mps 752 mmHg 53%
    20:00 +34°C° 0 mm 4 mps 752 mmHg 60%
    21:00 +34°C° 0 mm 3 mps 752 mmHg 66%
    22:00 +33°C° 0 mm 3 mps 752 mmHg 67%
    23:00 +32°C° 0 mm 2 mps 752 mmHg 67%
    Show more